Location: *
(44.3526°S, 44.9014°W)
Time: 20:33:42
(UTC+00:00)

Cosmos 841 Rocket - Pass Details

Date: 13 May 2025
Orbit: 742 x 768 km, 74.0° (Epoch: 16 June)

Event Time Altitude Azimuth Distance (km) Brightness Sun altitude
Rises 20:40:38 0° 196° (SSW) 3,233 6.7 -10.2°
Reaches altitude 10° 20:43:08 10° 189° (S) 2,299 5.9 -10.7°
Maximum altitude 20:48:06 44° 117° (ESE) 1,046 3.8 -11.5°
Drops below altitude 10° 20:53:00 10° 45° (NE) 2,265 5.6 -12.4°
Sets 20:55:26 0° 38° (NE) 3,180 6.5 -12.8°
